Weather History for Cody, WY

Change the Weather History Date:

Tuesday, June 12, 2012

  Actual Average Record
Temperature  
Mean Temperature 62 °F -  
Max Temperature 77 °F 73 °F 94 °F (1921)
Min Temperature 48 °F 47 °F 35 °F (1915)
Degree Days  
Heating Degree Days 2    
Growing Degree Days 12 (Base 50)    
Moisture  
Dew Point 33 °F    
Average Humidity 35    
Maximum Humidity 66    
Minimum Humidity 18    
Precipitation  
Precipitation 0.00 in - - ()
Sea Level Pressure  
Sea Level Pressure 30.06 in    
Wind  
Wind Speed 5 mph (WSW)    
Max Wind Speed 14 mph    
Max Gust Speed 20 mph    
Visibility 10 miles    
Events      
Averages and records for this station are not official NWS values.
T = Trace of Precipitation, MM = Missing Value Source: NWS Daily Summary

Daily Weather History Graph

Daily Weather History Graph

Search for Another Location

Airport:

Trip Planner

Search our weather history database for the weather conditions in past years. The results will help you decide how hot, cold, wet, or windy it might be!

Date:

Astronomy

Jun. 12, 2012 Rise Set
Actual Time 5:30 AM MDT 9:01 PM MDT
Civil Twilight 4:54 AM MDT 9:38 PM MDT
Nautical Twilight 4:05 AM MDT 10:26 PM MDT
Astronomical Twilight 3:03 AM MDT 11:29 PM MDT
Moon 1:31 AM MDT (6/12) 2:42 PM MDT (6/12)
Length of Visible Light 16h 44m
Length of Day
15h 30m
Last Quarter, 37% of the Moon is Illuminated
Jun 12
Last Quarter
Jun 19
New
Jun 26
First Quarter
Jul 3
Full
Jul 10
Last Quarter

Hourly Weather History & Observations

Time (MDT) Temp. Dew Point Humidity Pressure Visibility Wind Dir Wind Speed Gust Speed Precip Events Conditions
12:15 AM 53.6 °F 39.2 °F 58% 30.18 in 10.0 mi NW 4.6 mph - N/A   Mostly Cloudy
12:35 AM 53.6 °F 37.4 °F 54% 30.18 in 10.0 mi Calm Calm - N/A   Scattered Clouds
12:55 AM 51.8 °F 37.4 °F 58% 30.18 in 10.0 mi SSE 4.6 mph - N/A   Clear
1:15 AM 48.2 °F 37.4 °F 66% 30.18 in 10.0 mi SW 4.6 mph - N/A   Clear
1:35 AM 48.2 °F 35.6 °F 62% 30.17 in 10.0 mi SSE 4.6 mph - N/A   Clear
1:55 AM 51.8 °F 35.6 °F 54% 30.17 in 10.0 mi Calm Calm - N/A   Clear
2:15 AM 51.8 °F 35.6 °F 54% 30.17 in 10.0 mi Calm Calm - N/A   Partly Cloudy
2:35 AM 51.8 °F 35.6 °F 54% 30.17 in 10.0 mi SSW 4.6 mph - N/A   Partly Cloudy
2:55 AM 51.8 °F 35.6 °F 54% 30.17 in 10.0 mi SW 3.5 mph - N/A   Clear
3:15 AM 51.8 °F 35.6 °F 54% 30.17 in 10.0 mi South 4.6 mph - N/A   Mostly Cloudy
3:35 AM 51.8 °F 35.6 °F 54% 30.17 in 10.0 mi SW 5.8 mph - N/A   Mostly Cloudy
3:55 AM 51.8 °F 35.6 °F 54% 30.16 in 10.0 mi South 3.5 mph - N/A   Mostly Cloudy
4:15 AM 51.8 °F 35.6 °F 54% 30.15 in 10.0 mi Calm Calm - N/A   Partly Cloudy
4:35 AM 51.8 °F 35.6 °F 54% 30.15 in 10.0 mi SSW 5.8 mph - N/A   Clear
4:55 AM 51.8 °F 33.8 °F 50% 30.15 in 10.0 mi WSW 4.6 mph - N/A   Clear
5:15 AM 51.8 °F 32.0 °F 47% 30.15 in 10.0 mi SSW 4.6 mph - N/A   Clear
5:35 AM 48.2 °F 33.8 °F 58% 30.15 in 10.0 mi SSE 4.6 mph - N/A   Clear
5:55 AM 48.2 °F 33.8 °F 58% 30.14 in 10.0 mi South 8.1 mph - N/A   Clear
6:15 AM 50.0 °F 32.0 °F 50% 30.14 in 10.0 mi SSW 8.1 mph - N/A   Clear
6:35 AM 51.8 °F 33.8 °F 50% 30.14 in 10.0 mi SW 8.1 mph - N/A   Clear
6:55 AM 53.6 °F 33.8 °F 47% 30.15 in 10.0 mi NNW 4.6 mph - N/A   Clear
7:15 AM 48.2 °F 37.4 °F 66% 30.15 in 10.0 mi Calm Calm - N/A   Clear
7:35 AM 53.6 °F 35.6 °F 51% 30.15 in 10.0 mi Calm Calm - N/A   Clear
7:55 AM 57.2 °F 37.4 °F 48% 30.14 in 10.0 mi WSW 3.5 mph - N/A   Clear
8:15 AM 57.2 °F 39.2 °F 51% 30.14 in 10.0 mi Calm Calm - N/A   Clear
8:35 AM 57.2 °F 39.2 °F 51% 30.14 in 10.0 mi Calm Calm - N/A   Clear
8:55 AM 59.0 °F 37.4 °F 45% 30.13 in 10.0 mi Calm Calm - N/A   Clear
9:15 AM 60.8 °F 37.4 °F 42% 30.12 in 10.0 mi Calm Calm - N/A   Clear
9:35 AM 64.4 °F 39.2 °F 40% 30.12 in 10.0 mi Calm Calm - N/A   Clear
9:55 AM 66.2 °F 37.4 °F 35% 30.11 in 10.0 mi North 3.5 mph - N/A   Clear
10:15 AM 66.2 °F 35.6 °F 32% 30.10 in 10.0 mi North 5.8 mph - N/A   Clear
10:35 AM 68.0 °F 32.0 °F 26% 30.09 in 10.0 mi ENE 8.1 mph - N/A   Clear
10:55 AM 69.8 °F 30.2 °F 23% 30.08 in 10.0 mi South 5.8 mph - N/A   Clear
11:15 AM 71.6 °F 28.4 °F 20% 30.07 in 10.0 mi West 9.2 mph - N/A   Clear
11:35 AM 69.8 °F 28.4 °F 21% 30.06 in 10.0 mi West 8.1 mph - N/A   Clear
11:55 AM 73.4 °F 28.4 °F 19% 30.05 in 10.0 mi South 11.5 mph 16.1 mph N/A   Partly Cloudy
12:15 PM 69.8 °F 37.4 °F 31% 30.05 in 10.0 mi North 11.5 mph 16.1 mph N/A   Mostly Cloudy
12:35 PM 69.8 °F 33.8 °F 27% 30.04 in 10.0 mi NNE 4.6 mph - N/A   Mostly Cloudy
12:55 PM 69.8 °F 32.0 °F 25% 30.04 in 10.0 mi North 3.5 mph - N/A   Overcast
1:15 PM 71.6 °F 35.6 °F 27% 30.03 in 10.0 mi NNE 6.9 mph - N/A   Mostly Cloudy
1:35 PM 71.6 °F 30.2 °F 22% 30.02 in 10.0 mi NNE 5.8 mph - N/A   Scattered Clouds
1:55 PM 73.4 °F 30.2 °F 20% 30.01 in 10.0 mi North 3.5 mph - N/A   Mostly Cloudy
2:15 PM 73.4 °F 33.8 °F 23% 30.01 in 10.0 mi NNW 9.2 mph - N/A   Mostly Cloudy
2:35 PM 73.4 °F 33.8 °F 23% 30.00 in 10.0 mi NW 4.6 mph - N/A   Scattered Clouds
2:55 PM 73.4 °F 32.0 °F 22% 29.99 in 10.0 mi ENE 5.8 mph - N/A   Mostly Cloudy
3:15 PM 73.4 °F 30.2 °F 20% 29.99 in 10.0 mi Calm Calm - N/A   Scattered Clouds
3:35 PM 75.2 °F 37.4 °F 25% 29.99 in 10.0 mi North 13.8 mph - N/A   Scattered Clouds
3:55 PM 73.4 °F 33.8 °F 23% 29.98 in 10.0 mi Calm Calm - N/A   Scattered Clouds
4:35 PM 75.2 °F 28.4 °F 18% 29.97 in 10.0 mi SW 11.5 mph 18.4 mph N/A   Scattered Clouds
4:55 PM 77.0 °F 30.2 °F 18% 29.97 in 10.0 mi SW 6.9 mph 19.6 mph N/A   Partly Cloudy
5:15 PM 75.2 °F 28.4 °F 18% 29.97 in 10.0 mi West 4.6 mph - N/A   Clear
5:35 PM 75.2 °F 28.4 °F 18% 29.97 in 10.0 mi WNW 11.5 mph 19.6 mph N/A   Clear
5:55 PM 75.2 °F 28.4 °F 18% 29.96 in 10.0 mi WNW 6.9 mph - N/A   Partly Cloudy
6:15 PM 75.2 °F 30.2 °F 19% 29.96 in 10.0 mi West 6.9 mph - N/A   Clear
6:35 PM 77.0 °F 30.2 °F 18% 29.96 in 10.0 mi West 6.9 mph 17.3 mph N/A   Scattered Clouds
6:55 PM 75.2 °F 28.4 °F 18% 29.96 in 10.0 mi WSW 12.7 mph 17.3 mph N/A   Partly Cloudy
7:15 PM 75.2 °F 28.4 °F 18% 29.95 in 10.0 mi WSW 12.7 mph 16.1 mph N/A   Clear
7:35 PM 73.4 °F 28.4 °F 19% 29.96 in 10.0 mi WSW 12.7 mph 18.4 mph N/A   Clear
7:55 PM 73.4 °F 30.2 °F 20% 29.96 in 10.0 mi WSW 6.9 mph - N/A   Clear
8:15 PM 71.6 °F 28.4 °F 20% 29.96 in 10.0 mi WSW 6.9 mph - N/A   Clear
8:35 PM 71.6 °F 28.4 °F 20% 29.96 in 10.0 mi West 6.9 mph - N/A   Clear
8:55 PM 69.8 °F 28.4 °F 21% 29.96 in 10.0 mi West 4.6 mph - N/A   Clear
9:15 PM 69.8 °F 28.4 °F 21% 29.97 in 10.0 mi WSW 8.1 mph - N/A   Clear
9:35 PM 69.8 °F 28.4 °F 21% 29.97 in 10.0 mi West 9.2 mph - N/A   Clear
9:55 PM 69.8 °F 30.2 °F 23% 29.97 in 10.0 mi West 8.1 mph - N/A   Clear
10:15 PM 68.0 °F 30.2 °F 24% 29.97 in 10.0 mi WNW 3.5 mph - N/A   Clear
10:35 PM 66.2 °F 30.2 °F 26% 29.98 in 10.0 mi WSW 5.8 mph - N/A   Clear
10:55 PM 64.4 °F 30.2 °F 28% 29.97 in 10.0 mi South 6.9 mph - N/A   Clear
11:15 PM 62.6 °F 30.2 °F 30% 29.96 in 10.0 mi South 6.9 mph - N/A   Clear
11:35 PM 60.8 °F 30.2 °F 31% 29.95 in 10.0 mi South 5.8 mph - N/A   Clear
11:55 PM 60.8 °F 30.2 °F 31% 29.95 in 10.0 mi SSE 8.1 mph - N/A   Clear